This is the latest recevied weather packets stored in our database for station/object N3WPH. If no packets are shown the sender has not sent any weather packets the latest 10 day(s).
| Time | Temp. | Humidity | Pressure | Rain* | Wind** | Luminosity | Snow |
|---|---|---|---|---|---|---|---|
| 1777848772 | 13.33° C | 41% | 1010.8 hPa | 0 mm | - | 57 W/m² | - |
| 1777848470 | 13.33° C | 43% | 1010.9 hPa | 0 mm | - | 56 W/m² | - |
| 1777848167 | 13.33° C | 41% | 1010.7 hPa | 0 mm | - | 57 W/m² | - |
| 1777847865 | 13.33° C | 40% | 1010.7 hPa | 0 mm | - | 55 W/m² | - |
| 1777847562 | 13.89° C | 41% | 1010.7 hPa | 0 mm | - | 66 W/m² | - |
| 1777847258 | 13.89° C | 38% | 1010.7 hPa | 0 mm | - | 78 W/m² | - |
| 1777846956 | 13.89° C | 39% | 1010.8 hPa | 0 mm | - | 80 W/m² | - |
| 1777846654 | 13.89° C | 36% | 1010.7 hPa | 0 mm | - | 89 W/m² | - |
| 1777846352 | 14.44° C | 39% | 1010.8 hPa | 0 mm | - | 98 W/m² | - |
| 1777846048 | 14.44° C | 38% | 1010.9 hPa | 0 mm | - | 173 W/m² | - |
| 1777845745 | 14.44° C | 39% | 1010.7 hPa | 0 mm | - | 232 W/m² | - |
| 1777845442 | 14.44° C | 41% | 1010.8 hPa | 0 mm | - | 250 W/m² | - |
| 1777845139 | 14.44° C | 38% | 1010.7 hPa | 0 mm | - | 121 W/m² | - |
| 1777844837 | 13.89° C | 38% | 1011 hPa | 0 mm | - | 233 W/m² | - |
| 1777844533 | 13.89° C | 41% | 1010.9 hPa | 0 mm | - | 115 W/m² | - |
| 1777844232 | 14.44° C | 40% | 1010.8 hPa | 0 mm | - | 145 W/m² | - |
| 1777843928 | 14.44° C | 40% | 1010.7 hPa | 0 mm | - | 307 W/m² | - |
| 1777843625 | 14.44° C | 39% | 1010.7 hPa | 0 mm | - | 180 W/m² | - |
| 1777843323 | 13.89° C | 38% | 1010.4 hPa | 0 mm | - | 315 W/m² | - |
| 1777843021 | 13.89° C | 36% | 1010.5 hPa | 0 mm | - | 135 W/m² | - |
| 1777842716 | 14.44° C | 40% | 1010.4 hPa | 0 mm | - | 131 W/m² | - |
| 1777842412 | 13.89° C | 36% | 1010.6 hPa | 0 mm | - | 238 W/m² | - |
| 1777842109 | 13.89° C | 36% | 1010.6 hPa | 0 mm | - | 205 W/m² | - |
| 1777841804 | 13.89° C | 38% | 1010.4 hPa | 0 mm | - | 154 W/m² | - |
| 1777841501 | 13.89° C | 37% | 1010.4 hPa | 0 mm | - | 433 W/m² | - |
* Rain latest hour (hover to see other rain measurements)
** Current wind speed in m/s (hover to see current wind gust speed)